IRIDIUM 10

Last updated on Wed Nov 29 2017 00:19:02 GMT+0000 (Greenwich Mean Time)

1 24839U 97030D 17332.34615596 .00000150 00000-0 46627-4 0 9995 2 24839 86.3948 281.4151 0002150 82.1489 70.8567 14.34219307 70484
UTC large
Height (km)
Speed (km/s)
/
Latitude / Longitude
Inclination (degrees)
Orbital Period (minutes)
Azimuth
Elevation
Range (km)
Doppler Factor

Next 0 passes for location: London (51.5072 / 0.1276)

Sorry there are no passes over London.